CSN2703 ZJSY-ZYTL

Flight info

Callsign CSN2703
Flight time N/A
Altitude 33100
Route PORAP9ZD PORAP W222 NUMKU W223 AGTEL W71 LH DCT GYA B330 POU/K0859S1070 G471 SHL W26 UPRIK W41 DOPKU G471 EGEDA/K0869S1040 G471 PLT/K0859S1070 A599 JTN G327 NINAS B221 PINOT/K0856S1100 B221 XDX/K0850S1070 DCT URBAD W172 IGDEG W173 NIXEP NIX17A
Aircraft A320/M-SDE3FGHIRWY/LB1

Departure

Time N/A
Airport Sanya Phoenix International Airport (ZJSY)

Arrival

Time 2026-04-25 12:21
Airport Dalian Zhoushuizi International Airport (ZYTL)
Time Latitude Longitude Altitude Speed Heading
2026-04-25 11:58 37.53173 120.74437 33121 ft 418 kts
2026-04-25 11:58 37.56047 120.74980 33115 ft 418 kts
2026-04-25 11:59 37.61806 120.75977 33112 ft 417 kts
2026-04-25 11:59 37.67589 120.76644 33107 ft 417 kts
2026-04-25 12:00 37.76233 120.77548 33097 ft 418 kts
2026-04-25 12:01 37.84919 120.78590 33086 ft 418 kts
2026-04-25 12:01 37.90711 120.79303 33086 ft 418 kts
2026-04-25 12:02 37.99391 120.80603 33073 ft 422 kts 11°
2026-04-25 12:02 38.04798 120.83619 33048 ft 431 kts 26°
2026-04-25 12:03 38.07375 120.85574 32781 ft 432 kts 26°
2026-04-25 12:03 38.09966 120.87524 32520 ft 433 kts 26°
2026-04-25 12:03 38.12565 120.89475 32261 ft 435 kts 26°
2026-04-25 12:03 38.15177 120.91434 32005 ft 437 kts 27°
2026-04-25 12:04 38.17795 120.93399 31744 ft 438 kts 27°
2026-04-25 12:04 38.20418 120.95385 31489 ft 440 kts 29°
2026-04-25 12:04 38.22876 120.97749 31236 ft 447 kts 38°
2026-04-25 12:04 38.25015 121.00650 30937 ft 452 kts 47°
2026-04-25 12:05 38.26791 121.03997 29845 ft 464 kts 58°
2026-04-25 12:05 38.28153 121.07770 28545 ft 473 kts 64°
2026-04-25 12:05 38.29464 121.11627 27464 ft 475 kts 64°
2026-04-25 12:05 38.30794 121.15504 26198 ft 481 kts 64°
2026-04-25 12:06 38.32151 121.19412 25054 ft 484 kts 64°
2026-04-25 12:06 38.33522 121.23338 23896 ft 487 kts 64°
2026-04-25 12:06 38.34887 121.27257 23136 ft 479 kts 64°
2026-04-25 12:06 38.36220 121.31112 22240 ft 473 kts 64°
2026-04-25 12:07 38.37535 121.34927 21315 ft 467 kts 64°
2026-04-25 12:07 38.38943 121.38626 20387 ft 461 kts 57°
2026-04-25 12:07 38.40798 121.41921 19521 ft 455 kts 47°
2026-04-25 12:07 38.43067 121.44706 18630 ft 451 kts 37°
2026-04-25 12:08 38.45662 121.46906 17674 ft 446 kts 26°
2026-04-25 12:08 38.48487 121.48471 16712 ft 441 kts 16°
2026-04-25 12:08 38.51384 121.49544 15800 ft 438 kts 14°
2026-04-25 12:08 38.54305 121.50607 14941 ft 435 kts 14°
2026-04-25 12:09 38.57184 121.51668 13934 ft 425 kts 15°
2026-04-25 12:09 38.60033 121.52735 12886 ft 412 kts 15°
2026-04-25 12:09 38.62724 121.53751 12455 ft 396 kts 15°
2026-04-25 12:09 38.65266 121.54715 12358 ft 377 kts 15°
2026-04-25 12:10 38.67725 121.55644 12267 ft 360 kts 15°
2026-04-25 12:10 38.70083 121.56531 12124 ft 346 kts 15°
2026-04-25 12:10 38.72357 121.57384 11967 ft 335 kts 14°
2026-04-25 12:10 38.74560 121.58209 11824 ft 325 kts 14°
2026-04-25 12:11 38.76697 121.59012 11674 ft 315 kts 14°
2026-04-25 12:11 38.78772 121.59793 11540 ft 306 kts 14°
2026-04-25 12:11 38.80787 121.60554 11402 ft 298 kts 14°
2026-04-25 12:11 38.82743 121.61292 11266 ft 290 kts 14°
2026-04-25 12:12 38.84601 121.62195 11136 ft 284 kts 31°
2026-04-25 12:12 38.85584 121.63278 11056 ft 279 kts 51°
2026-04-25 12:12 38.86522 121.66301 10574 ft 280 kts 91°
2026-04-25 12:12 38.86357 121.68805 10171 ft 284 kts 98°
2026-04-25 12:13 38.86131 121.71350 9748 ft 289 kts 98°
2026-04-25 12:13 38.85909 121.73928 9296 ft 293 kts 98°
2026-04-25 12:13 38.85688 121.76540 8874 ft 296 kts 98°
2026-04-25 12:13 38.85468 121.79172 8462 ft 298 kts 98°
2026-04-25 12:14 38.85246 121.81826 8042 ft 301 kts 98°
2026-04-25 12:14 38.85062 121.84510 7596 ft 304 kts 90°
2026-04-25 12:14 38.85615 121.87112 7166 ft 308 kts 58°
2026-04-25 12:14 38.87134 121.89008 6678 ft 307 kts 25°
2026-04-25 12:15 38.89153 121.89790 6255 ft 303 kts
2026-04-25 12:15 38.91244 121.89844 5744 ft 299 kts 344°
2026-04-25 12:15 38.93004 121.88722 5341 ft 273 kts 310°
2026-04-25 12:16 38.94178 121.84400 4646 ft 234 kts 271°
2026-04-25 12:16 38.94333 121.82356 4307 ft 225 kts 271°
2026-04-25 12:16 38.94486 121.80394 3979 ft 216 kts 271°
2026-04-25 12:16 38.94634 121.78509 3678 ft 208 kts 270°
2026-04-25 12:17 38.94777 121.76694 3382 ft 200 kts 270°
2026-04-25 12:17 38.94917 121.74963 3142 ft 189 kts 270°
2026-04-25 12:17 38.95050 121.73378 3027 ft 167 kts 269°
2026-04-25 12:17 38.95168 121.71973 3019 ft 151 kts 268°
2026-04-25 12:18 38.95271 121.70666 2977 ft 143 kts 267°
2026-04-25 12:18 38.95366 121.69374 2435 ft 148 kts 267°
2026-04-25 12:18 38.95467 121.68061 2031 ft 142 kts 267°
2026-04-25 12:18 38.95564 121.66821 1846 ft 137 kts 266°
2026-04-25 12:19 38.95719 121.64824 1547 ft 135 kts 266°
2026-04-25 12:19 38.95843 121.63218 1307 ft 134 kts 266°
2026-04-25 12:19 38.95936 121.62023 1128 ft 136 kts 268°
2026-04-25 12:20 38.96030 121.60803 947 ft 138 kts 270°
2026-04-25 12:20 38.96126 121.59559 769 ft 141 kts 271°
2026-04-25 12:20 38.96224 121.58295 580 ft 143 kts 272°
2026-04-25 12:20 38.96323 121.57022 391 ft 144 kts 274°
2026-04-25 12:21 38.96420 121.55756 203 ft 145 kts 274°
2026-04-25 12:21 38.96505 121.54546 150 ft 118 kts 276°
2026-04-25 12:21 38.96583 121.53721 150 ft 68 kts 276°
2026-04-25 12:21 38.96574 121.53317 150 ft 37 kts 250°
2026-04-25 12:22 38.96517 121.53158 150 ft 13 kts 244°
2026-04-25 12:22 38.96452 121.53104 150 ft 12 kts 154°
2026-04-25 12:22 38.96421 121.53208 150 ft 14 kts 88°
2026-04-25 12:22 38.96430 121.53334 150 ft 16 kts 90°
2026-04-25 12:23 38.96420 121.53490 150 ft 19 kts 96°
2026-04-25 12:23 38.96408 121.53669 150 ft 21 kts 95°
2026-04-25 12:23 38.96395 121.53826 150 ft 14 kts 97°
2026-04-25 12:23 38.96382 121.53958 150 ft 16 kts 97°
2026-04-25 12:24 38.96348 121.53994 150 ft 4 kts 184°
2026-04-25 12:24 38.96308 121.53992 150 ft 7 kts 180°
2026-04-25 12:24 38.96264 121.53990 150 ft 0 kts 182°
2026-04-25 12:24 38.96253 121.53990 150 ft 3 kts 181°
2026-04-25 12:25 38.96242 121.53989 150 ft 0 kts 182°
2026-04-25 12:26 38.96241 121.53990 144 ft 0 kts 184°